Helicity
156 126 131 139 142 140 132 148 146 123 103 106 116 134 154 166 154 199 198 168 177 161 144 160 167 108 116 113 116 132 151 144 145 129 115 94 107 117 109 92 79 79 61
211 186 171 157 130 123 133 135 116 133 139 161 162 151 148 190 143 164 195 176 158 172 158 163 186 171 137 144 142 124 125 162 142 117 119 96 107 120 115 89 63 50 48
241 173 194 193 189 198 175 157 171 172 134 149 149 165 160 170 198 188 219 215 181 139 150 142 177 225 183 133 142 133 134 162 147 120 138 116 109 102 78 73 72 48 41
168 157 164 145 133 121 125 151 174 198 209 253 163 149 171 172 148 184 217 221 220 208 191 164 179 254 226 201 161 130 138 157 161 116 118 118 105 73 88 65 54 57 56
105 151 183 181 173 161 167 161 162 141 145 176 194 247 256 181 152 158 157 196 210 242 217 216 200 258 287 249 221 166 112 141 168 126 104 107 129 119 85 77 61 52 55
144 162 165 178 173 179 189 201 197 188 167 155 149 151 159 161 159 174 152 122 155 187 222 191 257 288 318 317 263 232 163 116 123 122 99 109 125 120 105 70 82 92 62
110 146 168 176 180 188 197 189 132 167 154 170 133 116 96 156 151 118 50 196 107 143 191 215 226 268 337 361 344 267 210 123 124 107 103 89 122 130 132 104 110 125 134
114 133 152 168 184 174 193 198 200 159 118 147 130 90 10 42 177 248 213 118 24 188 135 209 212 244 277 388 373 336 265 174 155 138 140 129 121 137 172 180 192 203 190
40 71 98 143 177 169 158 156 144 150 120 118 146 119 70 -6 129 118 184 180 198 152 123 179 221 230 307 355 366 409 363 281 203 166 180 179 145 132 181 216 219 210 193
-58 1 44 75 104 145 141 131 134 137 129 118 128 123 162 203 135 22 78 149 118 76 29 95 326 172 292 426 337 383 447 437 291 229 181 207 193 171 155 226 235 214 194
-15 1 39 96 133 156 145 105 99 97 84 96 90 90 83 74 69 93 41 42 25 -46 -108 -19 -64 232 328 293 482 447 454 533 375 282 210 241 231 226 195 193 236 225 224
21 39 90 115 120 111 113 95 57 52 49 48 59 70 76 70 67 49 56 36 72 111 -173 -243 -311 -122 115 228 335 466 592 566 473 375 297 278 270 251 228 203 209 225 245
29 70 96 101 74 55 50 33 49 70 77 87 78 79 85 91 99 106 101 74 27 49 -19 -126 -84 -307 -207 28 214 709 661 552 581 421 391 340 265 233 221 218 219 231 265
34 28 60 78 65 82 93 88 55 42 20 26 23 46 70 89 110 127 113 106 113 40 -66 64 -103 -200 -93 -294 -2 174 654 581 593 573 467 365 351 264 230 237 233 245 274
59 46 41 27 47 33 0 -14 -20 11 30 44 61 70 75 100 126 148 138 123 111 148 -29 -110 -113 -171 -36 -95 -121 -49 534 560 666 717 553 403 397 311 255 270 244 276 299
85 62 32 32 22 0 -12 32 43 46 52 56 60 75 98 101 118 128 140 115 113 90 94 25 17 -25 10 66 91 4 95 527 735 671 624 450 437 327 287 324 348 325 316
113 95 89 60 41 26 35 58 72 78 77 74 86 92 94 109 115 112 124 130 111 92 30 -18 10 -12 -74 35 83 -54 -33 565 661 629 739 564 452 436 370 387 389 334 323
110 115 110 96 85 68 74 73 75 78 69 71 77 76 82 86 86 92 117 97 72 68 50 -8 -67 -48 -58 -11 93 107 -9 275 472 469 693 549 518 459 425 470 414 367 332
103 115 125 103 115 80 93 86 81 82 64 67 71 58 54 59 66 78 80 79 55 57 53 17 -86 -18 12 82 6 54 47 146 558 724 635 571 486 492 497 461 437 408 363
126 130 139 110 93 98 91 78 99 73 53 57 64 55 51 55 58 82 71 59 49 29 41 20 -77 11 15 67 55 34 37 207 375 617 533 712 604 498 502 452 425 410 376
126 142 139 128 115 105 95 102 88 68 58 56 55 53 55 49 43 83 96 64 4 52 44 -54 29 47 36 101 47 19 41 108 407 361 525 730 676 639 585 506 419 384 393
123 120 125 116 99 105 81 79 69 68 53 52 56 50 47 38 50 47 60 67 55 16 -2 -71 41 62 87 170 133 13 80 183 328 413 449 917 684 665 584 493 415 446 416
111 114 111 103 90 89 64 68 67 68 56 55 53 52 54 43 43 34 40 48 65 57 56 -25 -65 30 65 36 93 125 41 193 385 539 594 687 737 618 584 517 494 494 439
139 117 127 105 87 85 71 79 68 68 56 45 52 52 49 51 18 38 33 42 47 80 74 64 -41 -51 2 56 65 95 74 138 379 444 594 807 689 713 644 653 570 490 442
192 137 151 117 99 92 75 70 72 66 55 50 53 51 51 40 42 37 26 25 23 41 59 39 29 5 -28 -62 -20 41 187 239 352 535 689 1012 923 994 834 690 604 476 442
217 178 144 122 86 86 75 61 68 70 62 58 56 50 37 41 40 45 28 22 15 19 31 43 45 36 27 -29 -35 22 117 283 249 381 534 744 1095 1182 994 812 598 622 568
Wind_Speed
48 47 48 49 52 54 49 45 45 44 45 45 43 41 42 41 40 38 36 31 29 30 26 23 19 19 17 16 18 18 17 13 9 8 8 10 10 5 1 3 3 5 8
47 50 54 56 56 59 62 61 60 50 49 49 48 47 48 48 47 45 44 41 38 37 38 32 29 26 24 24 23 23 24 18 15 13 12 11 9 7 5 3 2 1 4
51 52 55 59 63 63 65 65 67 68 61 56 55 54 53 51 50 50 51 49 47 44 44 43 38 35 31 28 27 27 28 26 21 20 18 17 15 13 10 8 8 6 4
55 58 58 59 62 62 63 66 67 68 68 70 70 62 60 58 58 54 52 52 53 52 50 51 49 44 41 36 32 30 31 29 28 25 25 23 21 19 19 14 12 10 9
60 63 63 65 66 66 66 67 68 68 72 74 75 75 75 64 62 62 61 57 55 56 57 56 57 55 50 46 40 37 35 33 32 31 30 29 26 23 22 20 18 16 16
69 70 70 70 70 71 71 72 74 71 71 76 81 81 74 72 65 60 61 62 60 59 60 61 61 61 61 56 52 47 43 40 38 34 33 34 32 29 26 25 21 18 23
75 76 74 74 74 74 73 71 70 75 74 74 82 89 85 78 72 66 62 59 64 65 62 61 66 65 66 67 62 57 51 47 44 39 38 36 37 32 29 26 23 21 21
78 76 72 74 74 72 71 70 72 74 71 70 80 90 95 91 72 71 71 72 71 66 72 69 68 72 71 71 71 68 62 56 51 47 43 40 40 38 36 31 27 24 23
78 75 70 73 74 70 71 68 66 67 73 69 70 74 89 93 104 88 88 87 75 74 77 75 76 74 77 77 76 77 73 66 59 54 50 46 44 43 41 38 34 31 28
77 72 69 68 67 65 67 64 61 64 65 72 70 64 70 85 101 118 92 96 98 91 84 83 80 84 81 85 87 81 82 77 69 63 57 55 51 48 46 45 41 37 34
71 68 66 64 65 65 64 61 63 64 62 65 67 71 77 79 82 101 126 113 103 96 91 91 98 94 86 100 91 89 88 85 77 71 65 62 59 56 53 51 47 44 40
70 66 65 63 62 62 62 60 60 61 62 62 63 66 70 78 88 92 109 117 114 107 98 100 103 108 101 102 100 94 95 94 87 80 73 69 64 60 60 57 53 50 47
69 67 64 62 60 58 57 59 60 60 58 60 62 64 64 67 73 81 94 111 116 113 108 110 108 105 113 111 110 100 99 101 93 86 82 76 69 66 65 62 57 54 51
61 59 58 56 58 60 59 59 57 56 54 56 58 60 65 67 69 73 84 96 115 118 114 119 115 115 114 107 112 99 103 104 102 100 91 84 75 70 70 66 64 60 55
63 61 59 59 58 57 57 58 57 60 60 60 63 64 65 65 68 69 72 81 92 107 112 109 112 96 99 105 101 107 97 103 101 106 98 88 77 76 74 71 69 64 59
63 59 58 57 56 57 60 60 58 58 61 62 63 66 65 67 66 64 65 70 76 84 98 90 102 103 113 114 111 103 113 104 103 101 100 93 83 81 80 76 74 68 62
59 54 55 54 53 55 57 55 56 58 63 64 63 63 66 64 61 57 57 70 77 77 103 101 93 99 108 109 105 103 99 103 102 100 99 92 89 86 84 80 77 72 66
59 56 54 53 51 52 54 55 57 57 62 63 65 64 64 61 60 50 54 69 65 69 83 106 100 101 97 100 101 101 99 109 95 98 107 98 94 89 87 81 80 74 67
60 57 53 54 54 56 56 57 59 60 62 62 64 61 62 59 58 52 53 62 70 72 73 86 100 96 92 79 85 98 91 85 91 82 101 98 94 90 89 84 81 75 68
60 58 54 55 56 58 57 59 60 64 64 62 60 58 56 57 57 56 52 53 73 82 73 78 85 87 82 82 77 85 90 84 92 83 91 96 93 91 88 86 83 77 74
61 59 57 58 58 58 58 59 63 65 62 61 57 58 55 58 58 58 54 47 35 69 67 77 79 81 74 75 74 74 85 86 93 90 92 95 92 91 89 87 82 78 75
60 60 59 60 59 58 58 61 63 61 59 58 57 59 59 61 54 57 54 49 45 32 74 72 75 72 67 66 64 68 76 75 80 78 85 97 94 88 84 83 83 80 77
62 62 61 62 62 59 59 59 62 61 60 57 57 59 61 60 60 63 60 56 50 48 45 69 71 70 72 69 69 69 73 76 74 72 87 96 94 88 84 82 84 81 79
64 63 61 62 62 61 60 62 62 62 62 60 57 58 59 61 62 59 64 62 59 59 55 54 67 66 66 65 64 60 59 58 57 70 78 79 85 85 81 82 83 80 79
64 62 60 60 61 62 61 63 61 61 63 63 59 58 58 61 59 63 64 65 63 60 65 68 69 64 64 63 54 52 46 46 51 61 64 67 63 70 76 77 79 81 80
59 55 55 54 58 63 62 61 61 59 62 63 61 60 57 58 62 62 63 63 67 62 70 73 70 66 61 58 53 49 49 42 45 53 55 60 55 65 73 75 78 79 78
Wind_Direction
329 328 328 331 323 320 317 312 309 304 300 296 293 290 286 283 283 284 282 265 240 229 233 229 236 216 204 194 185 177 174 179 200 197 183 165 155 147 90 57 32 47 74
330 326 322 321 318 317 313 311 310 308 302 300 299 295 290 287 284 283 282 278 256 239 230 231 228 230 220 207 200 195 189 199 211 222 224 222 210 197 202 255 220 320 99
331 326 325 321 318 316 315 313 310 307 304 300 296 295 293 289 288 284 279 276 274 248 240 233 234 231 228 226 214 209 204 200 216 225 226 222 235 240 235 237 239 221 177
333 328 326 322 320 319 318 315 314 311 308 306 302 297 291 290 288 284 281 278 273 268 252 239 236 235 235 232 235 221 212 209 207 228 234 229 230 235 252 242 231 228 214
332 329 326 322 320 318 317 316 314 313 309 307 305 302 301 294 288 289 283 277 272 269 266 254 239 237 236 236 234 230 221 217 213 213 231 231 232 228 237 235 238 220 200
328 326 323 320 318 316 315 315 313 312 309 307 305 303 302 301 297 289 285 282 277 270 268 262 254 245 238 235 235 232 227 221 215 216 221 231 233 234 232 238 225 207 184
325 323 321 320 319 316 315 315 314 311 309 311 306 303 301 301 296 294 289 288 279 273 267 264 258 253 248 236 235 235 232 227 225 226 220 225 229 225 219 218 207 193 183
327 325 323 322 320 319 318 317 315 312 311 311 306 305 300 298 301 302 300 298 292 281 271 264 260 254 251 247 240 233 232 231 230 228 227 227 221 212 203 202 195 188 184
329 326 324 323 321 320 317 317 317 316 312 313 312 306 301 296 298 295 293 296 297 296 291 269 261 257 249 249 243 235 231 230 231 228 226 222 219 209 202 205 199 189 186
331 331 328 326 325 325 321 322 322 320 318 314 315 312 306 303 298 294 294 292 291 289 287 286 287 267 251 251 245 237 231 229 232 227 224 220 215 216 208 200 202 192 190
336 337 335 333 329 328 328 326 324 323 322 319 317 314 311 308 304 297 292 293 290 286 285 283 279 277 282 253 247 239 231 226 228 226 223 217 215 212 210 207 201 195 194
335 336 336 336 335 334 333 332 330 328 326 325 324 321 316 311 307 304 298 293 290 289 284 282 275 273 275 274 247 238 230 225 223 223 218 214 215 212 211 208 205 199 197
335 335 336 337 337 337 337 336 334 333 333 330 328 325 323 318 315 310 304 296 292 287 286 280 275 275 268 271 275 231 224 223 222 218 219 215 211 212 212 208 207 199 194
334 339 341 342 342 341 341 340 341 340 340 337 334 331 327 324 322 318 309 304 297 290 284 278 277 274 269 269 268 254 222 225 218 216 214 212 210 212 210 207 204 196 193
334 335 337 337 339 340 341 340 339 337 337 334 331 330 329 329 327 324 319 312 302 294 288 281 279 276 272 270 268 272 234 226 218 221 208 206 204 199 203 202 203 197 195
331 331 332 332 333 334 334 333 334 333 331 331 330 329 330 331 333 332 326 319 309 295 288 286 281 278 275 269 264 265 252 229 223 215 209 203 206 195 197 199 199 197 196
329 328 329 328 327 329 331 330 329 328 328 328 329 330 330 333 336 338 335 320 315 303 283 281 287 287 281 268 264 261 263 232 227 213 210 206 205 204 203 199 198 198 195
327 326 324 323 323 324 326 324 324 325 325 326 326 329 332 337 339 344 341 326 323 316 294 279 285 289 287 272 265 260 257 237 232 219 214 208 202 201 201 200 200 195 197
325 324 322 321 321 322 321 320 320 320 320 322 324 326 331 337 339 343 344 337 326 318 313 296 282 291 281 282 268 260 254 248 229 220 211 205 202 202 202 200 198 197 197
321 320 319 318 319 318 317 316 316 315 316 319 323 323 331 333 338 343 346 343 326 315 316 298 281 284 284 279 275 263 252 246 232 227 219 211 204 201 201 200 199 197 196
318 317 316 316 315 313 313 314 313 311 313 316 320 320 325 327 333 340 346 349 348 330 325 296 293 293 293 281 273 269 253 249 235 232 225 219 209 208 206 201 198 195 196
315 315 313 313 313 312 311 311 310 312 312 313 316 316 319 321 332 336 344 349 350 349 301 292 297 287 286 287 293 271 254 247 237 230 224 220 209 208 206 200 200 197 198
312 311 310 310 309 308 308 309 309 309 309 310 312 312 315 316 322 327 336 343 351 349 347 294 291 296 293 285 287 273 254 247 240 231 222 220 212 208 209 206 200 200 198
309 309 306 307 306 305 305 305 305 305 304 306 309 310 311 311 317 325 327 335 341 344 343 341 289 285 289 287 285 283 267 257 247 232 222 224 217 212 210 209 198 195 195
305 305 305 304 302 302 301 302 302 303 301 302 306 307 309 309 314 316 322 327 335 342 334 324 294 281 280 293 295 280 280 260 241 233 225 222 222 217 211 207 198 192 194
299 302 303 302 300 299 298 298 300 301 300 299 302 305 307 308 309 313 317 323 323 336 327 309 306 300 289 290 290 285 275 259 246 236 231 226 210 214 218 216 204 199 198